Time,TemperatureF,DewpointF,PressureIn,WindDirection,WindDirectionDegrees,WindSpeedMPH,WindSpeedGustMPH,Humidity,HourlyPrecipIn,Conditions,Clouds,dailyrainin,SoftwareType,DateUTC
2013-07-08 00:01:00,66.1,21.4,29.81,SE,142,0.0,0.0,18,0.00,,,0.00,WeatherCatV1.15B25,2013-07-08 07:01:00,
2013-07-08 00:06:00,66.1,21.4,29.81,SE,142,0.0,0.0,18,0.00,,,0.00,WeatherCatV1.15B25,2013-07-08 07:06:00,
2013-07-08 00:11:00,65.9,22.5,29.81,SE,142,0.0,0.0,19,0.00,,,0.00,WeatherCatV1.15B25,2013-07-08 07:11:00,
2013-07-08 00:16:00,65.8,21.1,29.81,SE,142,0.0,0.0,18,0.00,,,0.00,WeatherCatV1.15B25,2013-07-08 07:16:00,
2013-07-08 00:21:00,65.7,21.0,29.81,SE,142,0.0,0.0,18,0.00,,,0.00,WeatherCatV1.15B25,2013-07-08 07:21:00,
2013-07-08 00:26:00,65.6,22.2,29.81,SE,142,0.0,0.0,19,0.00,,,0.00,WeatherCatV1.15B25,2013-07-08 07:26:00,
2013-07-08 00:31:00,65.5,22.2,29.81,SE,142,0.0,0.0,19,0.00,,,0.00,WeatherCatV1.15B25,2013-07-08 07:31:00,
2013-07-08 00:36:00,65.4,22.1,29.81,SE,142,0.0,0.0,19,0.00,,,0.00,WeatherCatV1.15B25,2013-07-08 07:36:00,
2013-07-08 00:41:00,65.5,23.4,29.81,SE,142,0.0,0.0,20,0.00,,,0.00,WeatherCatV1.15B25,2013-07-08 07:41:00,
2013-07-08 00:46:00,65.4,23.3,29.81,SE,142,0.0,0.0,20,0.00,,,0.00,WeatherCatV1.15B25,2013-07-08 07:46:00,
2013-07-08 00:51:00,65.3,23.2,29.81,SE,142,0.0,0.0,20,0.00,,,0.00,WeatherCatV1.15B25,2013-07-08 07:51:00,
2013-07-08 00:56:00,65.3,24.4,29.81,SE,142,0.0,0.0,21,0.00,,,0.00,WeatherCatV1.15B25,2013-07-08 07:56:00,
2013-07-08 01:01:00,65.2,23.1,29.81,SE,142,0.0,0.0,20,0.00,,,0.00,WeatherCatV1.15B25,2013-07-08 08:01:00,
2013-07-08 01:06:00,65.1,24.2,29.81,SE,142,0.0,0.0,21,0.00,,,0.00,WeatherCatV1.15B25,2013-07-08 08:06:00,
2013-07-08 01:11:00,64.9,22.9,29.81,SE,142,0.0,1.0,20,0.00,,,0.00,WeatherCatV1.15B25,2013-07-08 08:11:00,
2013-07-08 01:16:00,64.8,21.6,29.81,SE,142,0.0,1.0,19,0.00,,,0.00,WeatherCatV1.15B25,2013-07-08 08:16:00,
2013-07-08 01:21:00,64.9,21.7,29.81,SE,142,0.0,0.0,19,0.00,,,0.00,WeatherCatV1.15B25,2013-07-08 08:21:00,
2013-07-08 01:26:00,65.0,23.0,29.81,SE,142,0.0,0.0,20,0.00,,,0.00,WeatherCatV1.15B25,2013-07-08 08:26:00,
2013-07-08 01:31:00,65.2,24.3,29.81,SE,142,0.0,0.0,21,0.00,,,0.00,WeatherCatV1.15B25,2013-07-08 08:31:00,
2013-07-08 01:36:00,65.3,23.2,29.81,SE,142,0.0,1.0,20,0.00,,,0.00,WeatherCatV1.15B25,2013-07-08 08:36:00,
2013-07-08 01:41:00,65.4,24.5,29.81,SE,142,0.0,0.0,21,0.00,,,0.00,WeatherCatV1.15B25,2013-07-08 08:41:00,
2013-07-08 01:46:00,65.4,24.5,29.81,SE,142,0.0,0.0,21,0.00,,,0.00,WeatherCatV1.15B25,2013-07-08 08:46:00,
2013-07-08 01:51:00,65.4,24.5,29.81,SE,142,0.0,0.0,21,0.00,,,0.00,WeatherCatV1.15B25,2013-07-08 08:51:00,
2013-07-08 01:56:00,65.4,24.5,29.81,SE,142,0.0,0.0,21,0.00,,,0.00,WeatherCatV1.15B25,2013-07-08 08:56:00,
2013-07-08 02:01:00,65.3,25.5,29.81,SE,142,0.0,0.0,22,0.00,,,0.00,WeatherCatV1.15B25,2013-07-08 09:01:00,
2013-07-08 02:06:00,65.3,26.6,29.81,SE,142,0.0,0.0,23,0.00,,,0.00,WeatherCatV1.15B25,2013-07-08 09:06:00,
2013-07-08 02:11:00,65.2,27.5,29.81,SE,142,0.0,0.0,24,0.00,,,0.00,WeatherCatV1.15B25,2013-07-08 09:11:00,
2013-07-08 02:16:00,65.1,28.4,29.80,SE,142,0.0,0.0,25,0.00,,,0.00,WeatherCatV1.15B25,2013-07-08 09:16:00,
2013-07-08 02:21:00,65.0,28.3,29.80,SE,142,0.0,0.0,25,0.00,,,0.00,WeatherCatV1.15B25,2013-07-08 09:21:00,
2013-07-08 02:26:00,64.9,28.2,29.80,SE,142,0.0,0.0,25,0.00,,,0.00,WeatherCatV1.15B25,2013-07-08 09:26:00,
2013-07-08 02:31:00,64.8,27.2,29.80,SE,142,0.0,0.0,24,0.00,,,0.00,WeatherCatV1.15B25,2013-07-08 09:31:00,
2013-07-08 02:36:00,64.8,27.2,29.80,SE,142,0.0,0.0,24,0.00,,,0.00,WeatherCatV1.15B25,2013-07-08 09:36:00,
2013-07-08 02:41:00,64.7,26.0,29.80,SE,142,0.0,0.0,23,0.00,,,0.00,WeatherCatV1.15B25,2013-07-08 09:41:00,
2013-07-08 02:46:00,64.5,25.9,29.80,SE,142,0.0,0.0,23,0.00,,,0.00,WeatherCatV1.15B25,2013-07-08 09:46:00,
2013-07-08 02:51:00,64.3,25.7,29.80,SE,142,0.0,0.0,23,0.00,,,0.00,WeatherCatV1.15B25,2013-07-08 09:51:00,
2013-07-08 02:56:00,64.2,24.6,29.80,SE,142,0.0,0.0,22,0.00,,,0.00,WeatherCatV1.15B25,2013-07-08 09:56:00,
2013-07-08 03:01:00,64.2,24.6,29.80,SE,142,0.0,0.0,22,0.00,,,0.00,WeatherCatV1.15B25,2013-07-08 10:01:00,
2013-07-08 03:06:00,64.1,24.5,29.80,SE,142,0.0,0.0,22,0.00,,,0.00,WeatherCatV1.15B25,2013-07-08 10:06:00,
2013-07-08 03:11:00,64.0,24.4,29.80,SE,142,0.0,0.0,22,0.00,,,0.00,WeatherCatV1.15B25,2013-07-08 10:11:00,
2013-07-08 03:16:00,63.7,25.2,29.80,SE,142,0.0,1.0,23,0.00,,,0.00,WeatherCatV1.15B25,2013-07-08 10:16:00,
2013-07-08 03:21:00,63.2,24.8,29.80,SE,142,0.0,0.0,23,0.00,,,0.00,WeatherCatV1.15B25,2013-07-08 10:21:00,
2013-07-08 03:26:00,62.9,23.5,29.80,SE,142,0.0,0.0,22,0.00,,,0.00,WeatherCatV1.15B25,2013-07-08 10:26:00,
2013-07-08 03:31:00,62.8,23.4,29.80,SE,142,0.0,0.0,22,0.00,,,0.00,WeatherCatV1.15B25,2013-07-08 10:31:00,
2013-07-08 03:36:00,62.7,23.3,29.80,SE,142,0.0,0.0,22,0.00,,,0.00,WeatherCatV1.15B25,2013-07-08 10:36:00,
2013-07-08 03:41:00,62.7,23.3,29.80,SE,142,0.0,0.0,22,0.00,,,0.00,WeatherCatV1.15B25,2013-07-08 10:41:00,
2013-07-08 03:46:00,62.8,24.5,29.80,SE,142,0.0,1.0,23,0.00,,,0.00,WeatherCatV1.15B25,2013-07-08 10:46:00,
2013-07-08 03:51:00,62.9,25.6,29.80,SE,142,0.0,0.0,24,0.00,,,0.00,WeatherCatV1.15B25,2013-07-08 10:51:00,
2013-07-08 03:56:00,62.9,27.5,29.80,SE,142,0.0,0.0,26,0.00,,,0.00,WeatherCatV1.15B25,2013-07-08 10:56:00,
2013-07-08 04:01:00,62.9,28.4,29.80,SE,142,0.0,1.0,27,0.00,,,0.00,WeatherCatV1.15B25,2013-07-08 11:01:00,
2013-07-08 04:06:00,62.9,29.3,29.80,SE,142,0.0,1.0,28,0.00,,,0.00,WeatherCatV1.15B25,2013-07-08 11:06:00,
2013-07-08 04:11:00,62.9,29.3,29.80,SE,142,0.0,1.0,28,0.00,,,0.00,WeatherCatV1.15B25,2013-07-08 11:11:00,
2013-07-08 04:16:00,62.9,29.3,29.80,SE,142,0.0,0.0,28,0.00,,,0.00,WeatherCatV1.15B25,2013-07-08 11:16:00,
2013-07-08 04:21:00,62.9,29.3,29.80,SE,142,0.0,0.0,28,0.00,,,0.00,WeatherCatV1.15B25,2013-07-08 11:21:00,
2013-07-08 04:26:00,62.9,30.2,29.80,SE,142,0.0,0.0,29,0.00,,,0.00,WeatherCatV1.15B25,2013-07-08 11:26:00,
2013-07-08 04:31:00,62.9,31.8,29.80,SE,142,0.0,1.0,31,0.00,,,0.00,WeatherCatV1.15B25,2013-07-08 11:31:00,
2013-07-08 04:36:00,62.8,31.7,29.80,SE,142,0.0,0.0,31,0.00,,,0.00,WeatherCatV1.15B25,2013-07-08 11:36:00,
2013-07-08 04:41:00,62.7,32.4,29.80,SE,142,0.0,1.0,32,0.00,,,0.00,WeatherCatV1.15B25,2013-07-08 11:41:00,
2013-07-08 04:46:00,62.8,34.0,29.80,SE,142,0.0,0.0,34,0.00,,,0.00,WeatherCatV1.15B25,2013-07-08 11:46:00,
2013-07-08 04:51:00,62.9,34.8,29.80,SE,142,0.0,0.0,35,0.00,,,0.00,WeatherCatV1.15B25,2013-07-08 11:51:00,
2013-07-08 04:56:00,62.9,35.5,29.80,SE,142,0.0,1.0,36,0.00,,,0.00,WeatherCatV1.15B25,2013-07-08 11:56:00,
2013-07-08 05:01:00,62.8,36.1,29.80,SE,142,0.0,1.0,37,0.00,,,0.00,WeatherCatV1.15B25,2013-07-08 12:01:00,
2013-07-08 05:06:00,62.6,36.0,29.80,SE,142,0.0,0.0,37,0.00,,,0.00,WeatherCatV1.15B25,2013-07-08 12:06:00,
2013-07-08 05:11:00,62.6,36.0,29.80,SE,142,0.0,0.0,37,0.00,,,0.00,WeatherCatV1.15B25,2013-07-08 12:11:00,
2013-07-08 05:16:00,62.5,37.2,29.80,SE,142,0.0,0.0,39,0.00,,,0.00,WeatherCatV1.15B25,2013-07-08 12:16:00,
2013-07-08 05:21:00,62.6,37.9,29.80,SE,142,0.0,0.0,40,0.00,,,0.00,WeatherCatV1.15B25,2013-07-08 12:21:00,
2013-07-08 05:26:00,62.6,37.9,29.80,SE,142,0.0,0.0,40,0.00,,,0.00,WeatherCatV1.15B25,2013-07-08 12:26:00,
2013-07-08 05:31:00,62.6,38.6,29.81,SE,142,0.0,0.0,41,0.00,,,0.00,WeatherCatV1.15B25,2013-07-08 12:31:00,
2013-07-08 05:36:00,62.4,39.0,29.81,SE,142,0.0,2.0,42,0.00,,,0.00,WeatherCatV1.15B25,2013-07-08 12:36:00,
2013-07-08 05:41:00,62.2,38.8,29.81,SE,142,0.0,0.0,42,0.00,,,0.00,WeatherCatV1.15B25,2013-07-08 12:41:00,
2013-07-08 05:46:00,62.0,38.6,29.81,SE,142,0.0,1.0,42,0.00,,,0.00,WeatherCatV1.15B25,2013-07-08 12:46:00,
2013-07-08 05:51:00,61.9,39.2,29.81,SE,142,0.0,0.0,43,0.00,,,0.00,WeatherCatV1.15B25,2013-07-08 12:51:00,
2013-07-08 05:56:00,61.8,39.1,29.81,SE,142,0.0,0.0,43,0.00,,,0.00,WeatherCatV1.15B25,2013-07-08 12:56:00,
2013-07-08 06:01:00,61.7,39.0,29.81,SE,142,1.0,1.0,43,0.00,,,0.00,WeatherCatV1.15B25,2013-07-08 13:01:00,
2013-07-08 06:06:00,61.5,38.2,29.81,SE,142,0.0,0.0,42,0.00,,,0.00,WeatherCatV1.15B25,2013-07-08 13:06:00,
2013-07-08 06:11:00,61.5,38.2,29.81,SE,142,0.0,0.0,42,0.00,,,0.00,WeatherCatV1.15B25,2013-07-08 13:11:00,
2013-07-08 06:16:00,61.5,37.0,29.81,SE,142,0.0,0.0,40,0.00,,,0.00,WeatherCatV1.15B25,2013-07-08 13:16:00,
2013-07-08 06:21:00,61.4,37.5,29.81,SE,142,0.0,1.0,41,0.00,,,0.00,WeatherCatV1.15B25,2013-07-08 13:21:00,
2013-07-08 06:26:00,61.4,37.5,29.81,SE,142,0.0,1.0,41,0.00,,,0.00,WeatherCatV1.15B25,2013-07-08 13:26:00,
2013-07-08 06:31:00,61.3,36.8,29.81,SE,142,0.0,1.0,40,0.00,,,0.00,WeatherCatV1.15B25,2013-07-08 13:31:00,
2013-07-08 06:36:00,61.3,35.5,29.81,SE,142,0.0,0.0,38,0.00,,,0.00,WeatherCatV1.15B25,2013-07-08 13:36:00,
2013-07-08 06:41:00,61.4,36.9,29.81,SE,142,0.0,0.0,40,0.00,,,0.00,WeatherCatV1.15B25,2013-07-08 13:41:00,
2013-07-08 06:46:00,61.8,36.6,29.82,SE,142,0.0,0.0,39,0.00,,,0.00,WeatherCatV1.15B25,2013-07-08 13:46:00,
2013-07-08 06:51:00,62.1,36.2,29.82,SE,142,0.0,0.0,38,0.00,,,0.00,WeatherCatV1.15B25,2013-07-08 13:51:00,
2013-07-08 06:56:00,62.3,37.0,29.82,SE,142,0.0,0.0,39,0.00,,,0.00,WeatherCatV1.15B25,2013-07-08 13:56:00,
2013-07-08 07:01:00,62.3,37.7,29.83,SE,142,0.0,0.0,40,0.00,,,0.00,WeatherCatV1.15B25,2013-07-08 14:01:00,
2013-07-08 07:06:00,62.3,37.7,29.83,SE,142,0.0,0.0,40,0.00,,,0.00,WeatherCatV1.15B25,2013-07-08 14:06:00,
2013-07-08 07:11:00,62.4,38.4,29.83,SE,142,0.0,0.0,41,0.00,,,0.00,WeatherCatV1.15B25,2013-07-08 14:11:00,
2013-07-08 07:17:00,62.7,39.3,29.83,SE,142,0.0,0.0,42,0.00,,,0.00,WeatherCatV1.15B25,2013-07-08 14:17:00,
2013-07-08 07:22:00,63.0,39.5,29.83,SE,142,0.0,0.0,42,0.00,,,0.00,WeatherCatV1.15B25,2013-07-08 14:22:00,
2013-07-08 07:27:00,63.3,38.6,29.83,SE,142,0.0,0.0,40,0.00,,,0.00,WeatherCatV1.15B25,2013-07-08 14:27:00,
2013-07-08 07:32:00,64.1,38.6,29.83,SE,142,0.0,0.0,39,0.00,,,0.00,WeatherCatV1.15B25,2013-07-08 14:32:00,
2013-07-08 07:37:00,64.7,39.2,29.83,SE,142,0.0,0.0,39,0.00,,,0.00,WeatherCatV1.15B25,2013-07-08 14:37:00,
2013-07-08 07:42:00,65.0,38.1,29.83,SE,142,0.0,0.0,37,0.00,,,0.00,WeatherCatV1.15B25,2013-07-08 14:42:00,
2013-07-08 07:47:00,65.4,38.4,29.83,SE,142,0.0,0.0,37,0.00,,,0.00,WeatherCatV1.15B25,2013-07-08 14:47:00,
2013-07-08 07:52:00,65.7,38.7,29.83,SE,142,0.0,0.0,37,0.00,,,0.00,WeatherCatV1.15B25,2013-07-08 14:52:00,
2013-07-08 07:57:00,66.0,39.0,29.83,SE,142,0.0,2.0,37,0.00,,,0.00,WeatherCatV1.15B25,2013-07-08 14:57:00,
2013-07-08 08:02:00,66.5,38.7,29.84,SE,142,1.0,2.0,36,0.00,,,0.00,WeatherCatV1.15B25,2013-07-08 15:02:00,
2013-07-08 08:07:00,66.7,41.0,29.84,SE,142,0.0,0.0,39,0.00,,,0.00,WeatherCatV1.15B25,2013-07-08 15:07:00,
2013-07-08 08:12:00,66.8,41.0,29.84,SE,142,0.0,0.0,39,0.00,,,0.00,WeatherCatV1.15B25,2013-07-08 15:12:00,
2013-07-08 08:17:00,67.3,38.0,29.84,SSE,160,0.0,2.0,34,0.00,,,0.00,WeatherCatV1.15B25,2013-07-08 15:17:00,
2013-07-08 08:22:00,67.9,40.0,29.84,SSE,160,1.0,1.0,36,0.00,,,0.00,WeatherCatV1.15B25,2013-07-08 15:22:00,
2013-07-08 08:27:00,68.3,38.8,29.84,SSE,168,1.0,2.0,34,0.00,,,0.00,WeatherCatV1.15B25,2013-07-08 15:27:00,
2013-07-08 08:32:00,68.8,40.0,29.84,South,169,0.0,3.0,35,0.00,,,0.00,WeatherCatV1.15B25,2013-07-08 15:32:00,
2013-07-08 08:37:00,69.0,39.5,29.84,South,169,0.0,1.0,34,0.00,,,0.00,WeatherCatV1.15B25,2013-07-08 15:37:00,
2013-07-08 08:42:00,69.3,39.0,29.84,South,169,0.0,1.0,33,0.00,,,0.00,WeatherCatV1.15B25,2013-07-08 15:42:00,
2013-07-08 08:47:00,69.6,41.5,29.85,South,169,0.0,0.0,36,0.00,,,0.00,WeatherCatV1.15B25,2013-07-08 15:47:00,
2013-07-08 08:52:00,69.8,45.0,29.85,South,169,0.0,0.0,41,0.00,,,0.00,WeatherCatV1.15B25,2013-07-08 15:52:00,
2013-07-08 08:57:00,70.0,42.5,29.85,South,169,0.0,0.0,37,0.00,,,0.00,WeatherCatV1.15B25,2013-07-08 15:57:00,
2013-07-08 09:02:00,70.1,38.1,29.86,South,169,0.0,0.0,31,0.00,,,0.00,WeatherCatV1.15B25,2013-07-08 16:02:00,
2013-07-08 09:07:00,70.3,50.8,29.86,South,169,0.0,1.0,50,0.00,,,0.00,WeatherCatV1.15B25,2013-07-08 16:07:00,
2013-07-08 09:12:00,69.9,50.9,29.86,South,169,0.0,0.0,51,0.00,,,0.00,WeatherCatV1.15B25,2013-07-08 16:12:00,
2013-07-08 09:17:00,69.5,50.0,29.86,South,169,0.0,0.0,50,0.00,,,0.00,WeatherCatV1.15B25,2013-07-08 16:17:00,
2013-07-08 09:22:00,69.4,42.7,29.86,South,169,0.0,0.0,38,0.00,,,0.00,WeatherCatV1.15B25,2013-07-08 16:22:00,
2013-07-08 09:27:00,69.7,45.6,29.86,South,169,0.0,0.0,42,0.00,,,0.00,WeatherCatV1.15B25,2013-07-08 16:27:00,
2013-07-08 09:32:00,70.2,39.7,29.86,South,169,0.0,0.0,33,0.00,,,0.00,WeatherCatV1.15B25,2013-07-08 16:32:00,
2013-07-08 09:37:00,70.9,41.1,29.86,South,169,0.0,0.0,34,0.00,,,0.00,WeatherCatV1.15B25,2013-07-08 16:37:00,
2013-07-08 09:42:00,71.6,44.6,29.86,SSE,150,0.0,1.0,38,0.00,,,0.00,WeatherCatV1.15B25,2013-07-08 16:42:00,
2013-07-08 09:47:00,72.1,45.1,29.86,SSE,150,1.0,2.0,38,0.00,,,0.00,WeatherCatV1.15B25,2013-07-08 16:47:00,
2013-07-08 09:52:00,72.4,46.7,29.86,SSE,150,0.0,1.0,40,0.00,,,0.00,WeatherCatV1.15B25,2013-07-08 16:52:00,
2013-07-08 09:57:00,72.6,48.2,29.86,SSE,150,0.0,1.0,42,0.00,,,0.00,WeatherCatV1.15B25,2013-07-08 16:57:00,
2013-07-08 10:02:00,72.4,51.6,29.86,SE,145,0.0,2.0,48,0.00,,,0.00,WeatherCatV1.15B25,2013-07-08 17:02:00,
2013-07-08 10:07:00,71.1,52.0,29.86,SE,142,0.0,1.0,51,0.00,,,0.00,WeatherCatV1.15B25,2013-07-08 17:07:00,
2013-07-08 10:12:00,69.8,51.4,29.86,SE,144,1.0,1.0,52,0.00,,,0.00,WeatherCatV1.15B25,2013-07-08 17:12:00,
2013-07-08 10:17:00,68.8,52.0,29.86,SE,144,1.0,2.0,55,0.00,,,0.00,WeatherCatV1.15B25,2013-07-08 17:17:00,
2013-07-08 10:22:00,68.4,52.1,29.86,SE,143,0.0,1.0,56,0.00,,,0.00,WeatherCatV1.15B25,2013-07-08 17:22:00,
2013-07-08 10:27:00,68.4,52.6,29.86,SE,143,0.0,1.0,57,0.00,,,0.00,WeatherCatV1.15B25,2013-07-08 17:27:00,
2013-07-08 10:32:00,68.5,52.7,29.87,SSE,152,1.0,1.0,57,0.00,,,0.00,WeatherCatV1.15B25,2013-07-08 17:32:00,
2013-07-08 10:37:00,68.7,52.4,29.87,SSE,151,1.0,1.0,56,0.00,,,0.00,WeatherCatV1.15B25,2013-07-08 17:37:00,
2013-07-08 10:42:00,68.9,52.5,29.87,SSE,156,0.0,2.0,56,0.00,,,0.00,WeatherCatV1.15B25,2013-07-08 17:42:00,
2013-07-08 10:47:00,69.0,53.1,29.87,SSE,149,0.0,1.0,57,0.00,,,0.00,WeatherCatV1.15B25,2013-07-08 17:47:00,
2013-07-08 10:52:00,68.9,53.0,29.87,SSE,150,0.0,1.0,57,0.00,,,0.00,WeatherCatV1.15B25,2013-07-08 17:52:00,
2013-07-08 10:57:00,68.9,53.5,29.87,SE,135,1.0,2.0,58,0.00,,,0.00,WeatherCatV1.15B25,2013-07-08 17:57:00,
2013-07-08 11:02:00,69.2,53.8,29.88,SE,145,1.0,2.0,58,0.00,,,0.00,WeatherCatV1.15B25,2013-07-08 18:02:00,
2013-07-08 11:07:00,69.7,54.2,29.88,SE,145,0.0,0.0,58,0.00,,,0.00,WeatherCatV1.15B25,2013-07-08 18:07:00,
2013-07-08 11:12:00,70.4,53.9,29.88,SSE,148,0.0,1.0,56,0.00,,,0.00,WeatherCatV1.15B25,2013-07-08 18:12:00,
2013-07-08 11:17:00,71.2,53.2,29.88,SSE,148,1.0,1.0,53,0.00,,,0.00,WeatherCatV1.15B25,2013-07-08 18:17:00,
2013-07-08 11:22:00,71.8,54.2,29.88,SE,141,0.0,0.0,54,0.00,,,0.00,WeatherCatV1.15B25,2013-07-08 18:22:00,
2013-07-08 11:27:00,72.1,54.0,29.88,SE,138,1.0,1.0,53,0.00,,,0.00,WeatherCatV1.15B25,2013-07-08 18:27:00,
2013-07-08 11:32:00,73.0,55.4,29.88,SE,138,1.0,2.0,54,0.00,,,0.00,WeatherCatV1.15B25,2013-07-08 18:32:00,
2013-07-08 11:37:00,73.6,54.9,29.88,SE,146,1.0,2.0,52,0.00,,,0.00,WeatherCatV1.15B25,2013-07-08 18:37:00,
2013-07-08 11:42:00,74.2,55.4,29.88,SE,141,2.0,2.0,52,0.00,,,0.00,WeatherCatV1.15B25,2013-07-08 18:42:00,
2013-07-08 11:47:00,74.9,55.5,29.89,SE,142,0.0,2.0,51,0.00,,,0.00,WeatherCatV1.15B25,2013-07-08 18:47:00,
2013-07-08 11:52:00,75.4,56.0,29.89,SE,143,2.0,2.0,51,0.00,,,0.00,WeatherCatV1.15B25,2013-07-08 18:52:00,
2013-07-08 11:57:00,75.8,55.8,29.89,SSE,160,0.0,2.0,50,0.00,,,0.00,WeatherCatV1.15B25,2013-07-08 18:57:00,
2013-07-08 12:02:00,76.2,55.6,29.89,SSE,150,2.0,2.0,49,0.00,,,0.00,WeatherCatV1.15B25,2013-07-08 19:02:00,
2013-07-08 12:07:00,76.9,55.7,29.89,SSE,161,2.0,2.0,48,0.00,,,0.00,WeatherCatV1.15B25,2013-07-08 19:07:00,
2013-07-08 12:12:00,77.6,55.8,29.89,SSE,150,1.0,1.0,47,0.00,,,0.00,WeatherCatV1.15B25,2013-07-08 19:12:00,
2013-07-08 12:17:00,77.7,55.2,29.89,ENE,64,0.0,1.0,46,0.00,,,0.00,WeatherCatV1.15B25,2013-07-08 19:17:00,
2013-07-08 12:22:00,78.3,55.2,29.89,SE,131,0.0,2.0,45,0.00,,,0.00,WeatherCatV1.15B25,2013-07-08 19:22:00,
2013-07-08 12:27:00,78.5,53.5,29.89,SE,138,0.0,3.0,42,0.00,,,0.00,WeatherCatV1.15B25,2013-07-08 19:27:00,
2013-07-08 12:32:00,79.0,51.2,29.90,SSE,151,2.0,3.0,38,0.00,,,0.00,WeatherCatV1.15B25,2013-07-08 19:32:00,
2013-07-08 12:37:00,79.2,50.7,29.90,ESE,121,0.0,2.0,37,0.00,,,0.00,WeatherCatV1.15B25,2013-07-08 19:37:00,
2013-07-08 12:42:00,79.6,47.9,29.90,SE,138,1.0,2.0,33,0.00,,,0.00,WeatherCatV1.15B25,2013-07-08 19:42:00,
2013-07-08 12:47:00,80.0,49.9,29.90,SSE,148,0.0,1.0,35,0.00,,,0.00,WeatherCatV1.15B25,2013-07-08 19:47:00,
2013-07-08 12:52:00,80.3,38.0,29.90,South,177,0.0,1.0,22,0.00,,,0.00,WeatherCatV1.15B25,2013-07-08 19:52:00,
2013-07-08 12:57:00,80.5,38.1,29.90,SE,129,1.0,2.0,22,0.00,,,0.00,WeatherCatV1.15B25,2013-07-08 19:57:00,
2013-07-08 13:02:00,80.6,37.0,29.90,SSE,167,0.0,1.0,21,0.00,,,0.00,WeatherCatV1.15B25,2013-07-08 20:02:00,
2013-07-08 13:07:00,80.9,42.8,29.90,SSE,162,2.0,2.0,26,0.00,,,0.00,WeatherCatV1.15B25,2013-07-08 20:07:00,
2013-07-08 13:12:00,81.4,37.7,29.90,SE,131,1.0,2.0,21,0.00,,,0.00,WeatherCatV1.15B25,2013-07-08 20:12:00,
2013-07-08 13:17:00,81.8,32.7,29.90,SSE,158,1.0,2.0,17,0.00,,,0.00,WeatherCatV1.15B25,2013-07-08 20:17:00,
2013-07-08 13:22:00,81.6,37.9,29.90,SE,133,0.0,1.0,21,0.00,,,0.00,WeatherCatV1.15B25,2013-07-08 20:22:00,
2013-07-08 13:27:00,81.7,36.7,29.90,SE,144,1.0,3.0,20,0.00,,,0.00,WeatherCatV1.15B25,2013-07-08 20:27:00,
2013-07-08 13:32:00,81.8,36.8,29.90,SE,143,0.0,2.0,20,0.00,,,0.00,WeatherCatV1.15B25,2013-07-08 20:32:00,
2013-07-08 13:37:00,81.6,39.0,29.90,SE,130,0.0,1.0,22,0.00,,,0.00,WeatherCatV1.15B25,2013-07-08 20:37:00,
2013-07-08 13:42:00,81.4,38.9,29.90,SE,142,0.0,3.0,22,0.00,,,0.00,WeatherCatV1.15B25,2013-07-08 20:42:00,
2013-07-08 13:47:00,81.3,41.0,29.90,SSE,151,1.0,2.0,24,0.00,,,0.00,WeatherCatV1.15B25,2013-07-08 20:47:00,
2013-07-08 13:52:00,81.0,39.7,29.90,SE,136,0.0,2.0,23,0.00,,,0.00,WeatherCatV1.15B25,2013-07-08 20:52:00,
2013-07-08 13:57:00,81.0,37.4,29.90,WNW,301,0.0,2.0,21,0.00,,,0.00,WeatherCatV1.15B25,2013-07-08 20:57:00,
2013-07-08 14:02:00,81.2,33.6,29.90,ENE,69,0.0,1.0,18,0.00,,,0.00,WeatherCatV1.15B25,2013-07-08 21:02:00,
2013-07-08 14:07:00,81.3,32.3,29.90,North,356,0.0,2.0,17,0.00,,,0.00,WeatherCatV1.15B25,2013-07-08 21:07:00,
2013-07-08 14:12:00,81.2,42.0,29.90,SE,126,0.0,1.0,25,0.00,,,0.00,WeatherCatV1.15B25,2013-07-08 21:12:00,
2013-07-08 14:17:00,81.2,42.0,29.90,SE,137,0.0,2.0,25,0.00,,,0.00,WeatherCatV1.15B25,2013-07-08 21:17:00,
2013-07-08 14:22:00,81.0,43.8,29.90,East,96,1.0,1.0,27,0.00,,,0.00,WeatherCatV1.15B25,2013-07-08 21:22:00,
2013-07-08 14:27:00,81.0,42.9,29.90,NE,38,0.0,3.0,26,0.00,,,0.00,WeatherCatV1.15B25,2013-07-08 21:27:00,
2013-07-08 14:32:00,81.0,43.8,29.90,ENE,77,0.0,1.0,27,0.00,,,0.00,WeatherCatV1.15B25,2013-07-08 21:32:00,
2013-07-08 14:37:00,80.9,44.7,29.90,SE,140,0.0,3.0,28,0.00,,,0.00,WeatherCatV1.15B25,2013-07-08 21:37:00,
2013-07-08 14:42:00,80.6,44.5,29.90,SSE,159,0.0,2.0,28,0.00,,,0.00,WeatherCatV1.15B25,2013-07-08 21:42:00,
2013-07-08 14:47:00,80.2,46.8,29.90,SE,135,2.0,2.0,31,0.00,,,0.00,WeatherCatV1.15B25,2013-07-08 21:47:00,
2013-07-08 14:52:00,80.0,45.8,29.90,SE,133,0.0,3.0,30,0.00,,,0.00,WeatherCatV1.15B25,2013-07-08 21:52:00,
2013-07-08 14:57:00,79.4,43.4,29.90,NW,317,1.0,1.0,28,0.00,,,0.00,WeatherCatV1.15B25,2013-07-08 21:57:00,
2013-07-08 15:02:00,79.0,43.1,29.90,SSE,154,0.0,4.0,28,0.00,,,0.00,WeatherCatV1.15B25,2013-07-08 22:02:00,
2013-07-08 15:07:00,78.5,39.7,29.90,SE,136,0.0,3.0,25,0.00,,,0.00,WeatherCatV1.15B25,2013-07-08 22:07:00,
2013-07-08 15:12:00,78.2,40.5,29.90,SSE,148,0.0,1.0,26,0.00,,,0.00,WeatherCatV1.15B25,2013-07-08 22:12:00,
2013-07-08 15:17:00,78.3,40.6,29.90,East,79,0.0,1.0,26,0.00,,,0.00,WeatherCatV1.15B25,2013-07-08 22:17:00,
2013-07-08 15:22:00,78.5,42.7,29.90,SE,144,0.0,1.0,28,0.00,,,0.00,WeatherCatV1.15B25,2013-07-08 22:22:00,
2013-07-08 15:27:00,78.5,44.5,29.90,SE,145,0.0,1.0,30,0.00,,,0.00,WeatherCatV1.15B25,2013-07-08 22:27:00,
2013-07-08 15:32:00,78.7,41.9,29.90,SE,142,0.0,2.0,27,0.00,,,0.00,WeatherCatV1.15B25,2013-07-08 22:32:00,
2013-07-08 15:37:00,78.5,43.6,29.90,SE,146,0.0,1.0,29,0.00,,,0.00,WeatherCatV1.15B25,2013-07-08 22:37:00,
2013-07-08 15:42:00,78.2,41.5,29.90,SE,125,0.0,1.0,27,0.00,,,0.00,WeatherCatV1.15B25,2013-07-08 22:42:00,
2013-07-08 15:47:00,77.9,43.9,29.90,SSE,156,1.0,2.0,30,0.00,,,0.00,WeatherCatV1.15B25,2013-07-08 22:47:00,
2013-07-08 15:52:00,77.8,42.1,29.90,SE,140,1.0,2.0,28,0.00,,,0.00,WeatherCatV1.15B25,2013-07-08 22:52:00,
2013-07-08 15:57:00,77.7,43.8,29.90,ESE,121,1.0,2.0,30,0.00,,,0.00,WeatherCatV1.15B25,2013-07-08 22:57:00,
2013-07-08 16:02:00,77.5,43.6,29.90,SSE,166,0.0,2.0,30,0.00,,,0.00,WeatherCatV1.15B25,2013-07-08 23:02:00,
2013-07-08 16:07:00,77.6,47.0,29.90,SE,144,0.0,1.0,34,0.00,,,0.00,WeatherCatV1.15B25,2013-07-08 23:07:00,
2013-07-08 16:12:00,77.6,45.4,29.90,SE,144,0.0,0.0,32,0.00,,,0.00,WeatherCatV1.15B25,2013-07-08 23:12:00,
2013-07-08 16:17:00,77.9,47.2,29.90,SE,145,0.0,0.0,34,0.00,,,0.00,WeatherCatV1.15B25,2013-07-08 23:17:00,
2013-07-08 16:22:00,77.9,48.0,29.90,SSE,147,0.0,1.0,35,0.00,,,0.00,WeatherCatV1.15B25,2013-07-08 23:22:00,
2013-07-08 16:27:00,77.9,47.2,29.90,SSE,166,0.0,0.0,34,0.00,,,0.00,WeatherCatV1.15B25,2013-07-08 23:27:00,
2013-07-08 16:32:00,77.8,48.7,29.89,SSE,153,0.0,0.0,36,0.00,,,0.00,WeatherCatV1.15B25,2013-07-08 23:32:00,
2013-07-08 16:37:00,77.7,43.8,29.89,SSE,153,0.0,2.0,30,0.00,,,0.00,WeatherCatV1.15B25,2013-07-08 23:37:00,
2013-07-08 16:42:00,77.6,48.5,29.89,SSE,153,0.0,1.0,36,0.00,,,0.00,WeatherCatV1.15B25,2013-07-08 23:42:00,
2013-07-08 16:47:00,77.5,44.5,29.89,SSE,153,0.0,0.0,31,0.00,,,0.00,WeatherCatV1.15B25,2013-07-08 23:47:00,
2013-07-08 16:52:00,77.3,44.3,29.89,SE,146,0.0,1.0,31,0.00,,,0.00,WeatherCatV1.15B25,2013-07-08 23:52:00,
2013-07-08 16:57:00,77.1,46.5,29.89,SE,146,1.0,1.0,34,0.00,,,0.00,WeatherCatV1.15B25,2013-07-08 23:57:00,
2013-07-08 17:02:00,76.7,47.0,29.89,SE,146,1.0,1.0,35,0.00,,,0.00,WeatherCatV1.15B25,2013-07-09 00:02:00,
2013-07-08 17:07:00,76.5,43.6,29.89,SSE,147,0.0,2.0,31,0.00,,,0.00,WeatherCatV1.15B25,2013-07-09 00:07:00,
2013-07-08 17:12:00,76.3,44.3,29.89,SE,131,0.0,1.0,32,0.00,,,0.00,WeatherCatV1.15B25,2013-07-09 00:12:00,
2013-07-08 17:17:00,76.2,50.1,29.89,South,169,0.0,2.0,40,0.00,,,0.00,WeatherCatV1.15B25,2013-07-09 00:17:00,
2013-07-08 17:22:00,76.0,51.9,29.89,South,169,1.0,1.0,43,0.00,,,0.00,WeatherCatV1.15B25,2013-07-09 00:22:00,
2013-07-08 17:27:00,75.8,48.4,29.89,South,169,1.0,1.0,38,0.00,,,0.00,WeatherCatV1.15B25,2013-07-09 00:27:00,
2013-07-08 17:32:00,75.4,51.3,29.89,South,169,0.0,0.0,43,0.00,,,0.00,WeatherCatV1.15B25,2013-07-09 00:32:00,
2013-07-08 17:37:00,75.1,44.8,29.89,South,169,0.0,0.0,34,0.00,,,0.00,WeatherCatV1.15B25,2013-07-09 00:37:00,
2013-07-08 17:42:00,74.9,44.6,29.89,South,169,0.0,2.0,34,0.00,,,0.00,WeatherCatV1.15B25,2013-07-09 00:42:00,
2013-07-08 17:47:00,74.8,44.5,29.88,South,169,0.0,1.0,34,0.00,,,0.00,WeatherCatV1.15B25,2013-07-09 00:47:00,
2013-07-08 17:52:00,74.7,49.4,29.88,South,169,0.0,1.0,41,0.00,,,0.00,WeatherCatV1.15B25,2013-07-09 00:52:00,
2013-07-08 17:57:00,74.6,48.7,29.88,South,169,0.0,1.0,40,0.00,,,0.00,WeatherCatV1.15B25,2013-07-09 00:57:00,
2013-07-08 18:02:00,74.5,41.0,29.88,SSE,168,0.0,1.0,30,0.00,,,0.00,WeatherCatV1.15B25,2013-07-09 01:02:00,
2013-07-08 18:07:00,74.5,40.1,29.88,SSE,168,0.0,0.0,29,0.00,,,0.00,WeatherCatV1.15B25,2013-07-09 01:07:00,
2013-07-08 18:12:00,74.5,38.3,29.88,SSE,167,0.0,1.0,27,0.00,,,0.00,WeatherCatV1.15B25,2013-07-09 01:12:00,
2013-07-08 18:17:00,74.6,38.4,29.88,SSE,167,0.0,0.0,27,0.00,,,0.00,WeatherCatV1.15B25,2013-07-09 01:17:00,
2013-07-08 18:22:00,74.6,30.9,29.88,SSE,167,0.0,1.0,20,0.00,,,0.00,WeatherCatV1.15B25,2013-07-09 01:22:00,
2013-07-08 18:27:00,74.7,33.3,29.88,SSE,167,0.0,0.0,22,0.00,,,0.00,WeatherCatV1.15B25,2013-07-09 01:27:00,
2013-07-08 18:31:00,74.7,32.2,29.88,SSE,167,0.0,0.0,21,0.00,,,0.00,WeatherCatV1.15B25,2013-07-09 01:31:00,
2013-07-08 18:36:00,74.8,36.6,29.88,SSE,167,0.0,0.0,25,0.00,,,0.00,WeatherCatV1.15B25,2013-07-09 01:36:00,
2013-07-08 18:41:00,74.8,33.4,29.88,SSE,167,0.0,0.0,22,0.00,,,0.00,WeatherCatV1.15B25,2013-07-09 01:41:00,
2013-07-08 18:46:00,74.7,34.4,29.88,SSE,167,0.0,0.0,23,0.00,,,0.00,WeatherCatV1.15B25,2013-07-09 01:46:00,
2013-07-08 18:51:00,74.7,31.0,29.88,SSE,167,0.0,0.0,20,0.00,,,0.00,WeatherCatV1.15B25,2013-07-09 01:51:00,
2013-07-08 18:56:00,74.6,30.9,29.88,SSE,167,0.0,0.0,20,0.00,,,0.00,WeatherCatV1.15B25,2013-07-09 01:56:00,
2013-07-08 19:01:00,74.6,29.6,29.89,SSE,167,0.0,0.0,19,0.00,,,0.00,WeatherCatV1.15B25,2013-07-09 02:01:00,
2013-07-08 19:06:00,74.5,30.8,29.89,SSE,167,0.0,0.0,20,0.00,,,0.00,WeatherCatV1.15B25,2013-07-09 02:06:00,
2013-07-08 19:11:00,74.4,26.7,29.89,SSE,167,0.0,0.0,17,0.00,,,0.00,WeatherCatV1.15B25,2013-07-09 02:11:00,
2013-07-08 19:16:00,74.3,28.0,29.89,SSE,167,0.0,0.0,18,0.00,,,0.00,WeatherCatV1.15B25,2013-07-09 02:16:00,
2013-07-08 19:21:00,74.2,28.0,29.89,SSE,167,0.0,0.0,18,0.00,,,0.00,WeatherCatV1.15B25,2013-07-09 02:21:00,
2013-07-08 19:26:00,74.0,27.8,29.89,SSE,167,0.0,0.0,18,0.00,,,0.00,WeatherCatV1.15B25,2013-07-09 02:26:00,
2013-07-08 19:31:00,73.8,24.8,29.88,SSE,167,0.0,0.0,16,0.00,,,0.00,WeatherCatV1.15B25,2013-07-09 02:31:00,
2013-07-08 19:36:00,73.5,27.4,29.88,SSE,167,0.0,0.0,18,0.00,,,0.00,WeatherCatV1.15B25,2013-07-09 02:36:00,
2013-07-08 19:42:00,73.1,25.7,29.88,SSE,167,0.0,0.0,17,0.00,,,0.00,WeatherCatV1.15B25,2013-07-09 02:42:00,
2013-07-08 19:47:00,72.9,22.5,29.88,SSE,167,0.0,1.0,15,0.00,,,0.00,WeatherCatV1.15B25,2013-07-09 02:47:00,
2013-07-08 19:52:00,72.7,23.9,29.88,SSE,167,0.0,0.0,16,0.00,,,0.00,WeatherCatV1.15B25,2013-07-09 02:52:00,
2013-07-08 19:57:00,72.6,25.3,29.88,SSE,167,0.0,0.0,17,0.00,,,0.00,WeatherCatV1.15B25,2013-07-09 02:57:00,
2013-07-08 20:02:00,72.4,22.1,29.88,SSE,167,0.0,0.0,15,0.00,,,0.00,WeatherCatV1.15B25,2013-07-09 03:02:00,
2013-07-08 20:07:00,72.3,22.1,29.88,SSE,167,0.0,0.0,15,0.00,,,0.00,WeatherCatV1.15B25,2013-07-09 03:07:00,
2013-07-08 20:12:00,72.3,22.1,29.88,SSE,167,0.0,0.0,15,0.00,,,0.00,WeatherCatV1.15B25,2013-07-09 03:12:00,
2013-07-08 20:17:00,72.2,22.0,29.88,SSE,167,0.0,1.0,15,0.00,,,0.00,WeatherCatV1.15B25,2013-07-09 03:17:00,
2013-07-08 20:22:00,72.2,23.5,29.88,SSE,167,0.0,0.0,16,0.00,,,0.00,WeatherCatV1.15B25,2013-07-09 03:22:00,
2013-07-08 20:27:00,72.0,23.4,29.88,SSE,167,0.0,0.0,16,0.00,,,0.00,WeatherCatV1.15B25,2013-07-09 03:27:00,
2013-07-08 20:32:00,71.9,21.7,29.88,SSE,167,0.0,0.0,15,0.00,,,0.00,WeatherCatV1.15B25,2013-07-09 03:32:00,
2013-07-08 20:37:00,71.8,23.2,29.88,SSE,167,0.0,0.0,16,0.00,,,0.00,WeatherCatV1.15B25,2013-07-09 03:37:00,
2013-07-08 20:42:00,71.7,21.6,29.88,SSE,167,0.0,0.0,15,0.00,,,0.00,WeatherCatV1.15B25,2013-07-09 03:42:00,
2013-07-08 20:47:00,71.6,21.5,29.88,SSE,167,0.0,1.0,15,0.00,,,0.00,WeatherCatV1.15B25,2013-07-09 03:47:00,
2013-07-08 20:52:00,71.5,21.4,29.88,SSE,167,0.0,1.0,15,0.00,,,0.00,WeatherCatV1.15B25,2013-07-09 03:52:00,
2013-07-08 20:57:00,71.4,22.9,29.88,SSE,167,0.0,0.0,16,0.00,,,0.00,WeatherCatV1.15B25,2013-07-09 03:57:00,
2013-07-08 21:01:00,71.3,21.3,29.88,SSE,167,0.0,1.0,15,0.00,,,0.00,WeatherCatV1.15B25,2013-07-09 04:01:00,
2013-07-08 21:06:00,71.2,21.2,29.88,SSE,167,0.0,0.0,15,0.00,,,0.00,WeatherCatV1.15B25,2013-07-09 04:06:00,
2013-07-08 21:11:00,71.1,21.1,29.88,SSE,167,0.0,0.0,15,0.00,,,0.00,WeatherCatV1.15B25,2013-07-09 04:11:00,
2013-07-08 21:16:00,71.2,21.2,29.89,SSE,167,0.0,0.0,15,0.00,,,0.00,WeatherCatV1.15B25,2013-07-09 04:16:00,
2013-07-08 21:21:00,71.3,21.3,29.89,SSE,167,0.0,0.0,15,0.00,,,0.00,WeatherCatV1.15B25,2013-07-09 04:21:00,
2013-07-08 21:26:00,71.3,28.2,29.89,SSE,167,0.0,0.0,20,0.00,,,0.00,WeatherCatV1.15B25,2013-07-09 04:26:00,
2013-07-08 21:31:00,71.2,28.1,29.89,SSE,167,0.0,0.0,20,0.00,,,0.00,WeatherCatV1.15B25,2013-07-09 04:31:00,
2013-07-08 21:36:00,70.9,26.6,29.89,SSE,167,0.0,0.0,19,0.00,,,0.00,WeatherCatV1.15B25,2013-07-09 04:36:00,
2013-07-08 21:41:00,70.6,25.0,29.89,SSE,167,0.0,0.0,18,0.00,,,0.00,WeatherCatV1.15B25,2013-07-09 04:41:00,
2013-07-08 21:46:00,70.3,24.8,29.90,SSE,167,0.0,0.0,18,0.00,,,0.00,WeatherCatV1.15B25,2013-07-09 04:46:00,
2013-07-08 21:51:00,70.0,25.8,29.90,SSE,167,0.0,0.0,19,0.00,,,0.00,WeatherCatV1.15B25,2013-07-09 04:51:00,
2013-07-08 21:56:00,69.5,25.4,29.90,SSE,167,0.0,0.0,19,0.00,,,0.00,WeatherCatV1.15B25,2013-07-09 04:56:00,
2013-07-08 22:01:00,69.0,26.3,29.90,SSE,167,0.0,1.0,20,0.00,,,0.00,WeatherCatV1.15B25,2013-07-09 05:01:00,
2013-07-08 22:06:00,68.7,27.2,29.90,SSE,167,0.0,0.0,21,0.00,,,0.00,WeatherCatV1.15B25,2013-07-09 05:06:00,
2013-07-08 22:11:00,68.4,26.9,29.90,SSE,167,0.0,1.0,21,0.00,,,0.00,WeatherCatV1.15B25,2013-07-09 05:11:00,
2013-07-08 22:16:00,68.1,25.5,29.91,SSE,167,0.0,0.0,20,0.00,,,0.00,WeatherCatV1.15B25,2013-07-09 05:16:00,
2013-07-08 22:21:00,67.9,25.4,29.91,SSE,167,0.0,1.0,20,0.00,,,0.00,WeatherCatV1.15B25,2013-07-09 05:21:00,
2013-07-08 22:26:00,67.7,25.2,29.91,SSE,167,0.0,0.0,20,0.00,,,0.00,WeatherCatV1.15B25,2013-07-09 05:26:00,
2013-07-08 22:31:00,67.6,26.3,29.91,SSE,167,0.0,0.0,21,0.00,,,0.00,WeatherCatV1.15B25,2013-07-09 05:31:00,
2013-07-08 22:36:00,67.6,26.3,29.91,SSE,167,0.0,0.0,21,0.00,,,0.00,WeatherCatV1.15B25,2013-07-09 05:36:00,
2013-07-08 22:41:00,67.5,25.0,29.91,South,182,0.0,0.0,20,0.00,,,0.00,WeatherCatV1.15B25,2013-07-09 05:41:00,
2013-07-08 22:46:00,67.6,25.1,29.91,South,182,0.0,0.0,20,0.00,,,0.00,WeatherCatV1.15B25,2013-07-09 05:46:00,
2013-07-08 22:51:00,67.6,23.9,29.91,South,182,0.0,0.0,19,0.00,,,0.00,WeatherCatV1.15B25,2013-07-09 05:51:00,
2013-07-08 22:56:00,67.7,22.7,29.91,South,182,0.0,0.0,18,0.00,,,0.00,WeatherCatV1.15B25,2013-07-09 05:56:00,
2013-07-08 23:01:00,67.7,24.0,29.91,South,182,0.0,0.0,19,0.00,,,0.00,WeatherCatV1.15B25,2013-07-09 06:01:00,
2013-07-08 23:06:00,67.7,25.2,29.91,South,182,0.0,0.0,20,0.00,,,0.00,WeatherCatV1.15B25,2013-07-09 06:06:00,
2013-07-08 23:11:00,67.7,25.2,29.91,South,182,0.0,0.0,20,0.00,,,0.00,WeatherCatV1.15B25,2013-07-09 06:11:00,
2013-07-08 23:16:00,67.6,23.9,29.91,South,182,0.0,0.0,19,0.00,,,0.00,WeatherCatV1.15B25,2013-07-09 06:16:00,
2013-07-08 23:21:00,67.4,24.9,29.91,South,182,0.0,0.0,20,0.00,,,0.00,WeatherCatV1.15B25,2013-07-09 06:21:00,
2013-07-08 23:26:00,67.2,24.8,29.91,South,182,0.0,0.0,20,0.00,,,0.00,WeatherCatV1.15B25,2013-07-09 06:26:00,
2013-07-08 23:31:00,67.0,23.4,29.91,South,182,0.0,0.0,19,0.00,,,0.00,WeatherCatV1.15B25,2013-07-09 06:31:00,
2013-07-08 23:36:00,67.0,28.0,29.91,South,182,0.0,0.0,23,0.00,,,0.00,WeatherCatV1.15B25,2013-07-09 06:36:00,
2013-07-08 23:41:00,67.0,26.9,29.91,South,182,0.0,0.0,22,0.00,,,0.00,WeatherCatV1.15B25,2013-07-09 06:41:00,
2013-07-08 23:46:00,66.9,26.8,29.91,South,182,0.0,0.0,22,0.00,,,0.00,WeatherCatV1.15B25,2013-07-09 06:46:00,
2013-07-08 23:51:00,66.7,28.8,29.91,South,182,0.0,0.0,24,0.00,,,0.00,WeatherCatV1.15B25,2013-07-09 06:51:00,
2013-07-08 23:56:00,66.5,28.6,29.91,South,182,0.0,0.0,24,0.00,,,0.00,WeatherCatV1.15B25,2013-07-09 06:56:00,